Location: Palomar Observatory
(33.3560°N, 116.8630°W)
Time: 18:52:01
(UTC-08:00)

Iridium 57 - Visible Passes

Search period start: 21 November 2014 00:00
Search period end: 01 December 2014 00:00
Orbit: 776 x 779 km, 86.4° (Epoch: 21 November)

Date Brightness Start Highest point End Pass type
(mag) Time Alt. Az. Time Alt. Az. Time Alt. Az.
21 Nov 6.0 04:32:33 10° N 04:37:42 60° E 04:42:49 10° SSE visible
21 Nov 6.3 17:24:49 10° SSW 17:29:55 57° W 17:35:03 10° N visible
22 Nov 7.3 03:59:31 10° NNE 04:04:05 30° E 04:08:37 10° SE visible
22 Nov 6.6 05:40:30 10° NNW 05:44:34 24° W 05:48:38 10° SW visible
23 Nov 8.2 03:27:13 10° NE 03:30:20 16° ENE 03:33:26 10° ESE visible
23 Nov 5.7 05:06:18 10° NNW 05:11:15 46° W 05:16:11 10° SSW visible
23 Nov 8.2 18:00:04 10° SW 18:03:47 20° W 18:07:31 10° NNW visible
24 Nov 5.4 04:32:35 10° N 04:37:48 90° E 04:43:00 10° S visible
24 Nov 7.1 17:25:17 10° SSW 17:30:04 38° W 17:34:54 10° NNW visible
25 Nov 6.5 03:59:37 12° NNE 04:04:15 45° E 04:09:13 10° SSE visible
25 Nov 7.0 05:41:27 10° NW 05:44:30 16° W 05:47:32 10° WSW visible
26 Nov 7.6 03:28:21 18° NE 03:30:35 24° E 03:34:42 10° SE visible
26 Nov 6.2 05:08:58 22° NW 05:11:14 31° W 05:15:44 10° SW visible
26 Nov 8.5 18:01:43 10° WSW 18:04:03 13° WNW 18:06:24 10° NW visible
27 Nov 8.4 02:56:41 12° ENE 02:56:46 12° ENE 02:58:41 10° E visible
27 Nov 5.4 04:37:16 56° WNW 04:37:52 60° W 04:42:58 10° SSW visible
27 Nov 7.9 17:26:01 10° SW 17:30:16 25° W 17:34:32 10° NNW visible
28 Nov 6.0 04:05:19 56° SE 04:05:19 56° SE 04:09:33 10° S visible
29 Nov 7.5 03:33:13 23° SE 03:33:13 23° SE 03:35:29 10° SSE visible
29 Nov 7.3 05:13:47 15° WSW 05:13:47 15° WSW 05:14:57 10° SW visible
30 Nov 7.4 04:41:33 16° SSW 04:41:33 16° SSW 04:42:41 10° SSW visible
30 Nov 8.3 17:27:09 10° WSW 17:30:30 17° W 17:33:51 10° NW visible
